Location: Seale
(32.2974°N, 85.1688°W)
Time: 23:15:14
(UTC+00:00)

X-37B - Pass Details

Date: 30 January 2021
Orbit: 383 x 391 km, 45.0° (Epoch: 10 February)

Event Time Altitude Azimuth Distance (km) Brightness Sun altitude
Rises 00:33:25 0° 313° (NW) 2,272 5.0 -17.5°
Reaches altitude 10° 00:35:41 10° 325° (NW) 1,417 3.7 -17.9°
Enters shadow 00:37:44 25° 1° (N) 839 2.1 -18.4°
